DW7661 Weather Reports


Display with metric or nautical units.
time (UTC)temp
F
wind
direction
speed
MPH
gust
MPH
rain 1hr
in
rain 24hr
in
rain mn
in
humidity
%
barometer
mb
20260506194503 53 85 0.0 2.0 0.00 0.00 0.00 65 1011.7
20260506193603 54 89 1.0 3.0 0.00 0.00 0.00 65 1011.7
20260506192703 54 81 1.0 3.0 0.00 0.00 0.00 64 1011.6
20260506191803 54 79 1.0 5.0 0.00 0.00 0.00 64 1011.6
20260506190903 54 62 2.0 5.0 0.00 0.00 0.00 64 1011.5
20260506190004 54 58 1.0 5.0 0.00 0.00 0.00 64 1011.4
20260506185403 54 50 2.0 7.0 0.00 0.00 0.00 63 1011.4
20260506184718 55 56 3.0 7.0 0.00 0.00 0.00 62 1011.2
20260506183604 55 71 4.0 9.0 0.00 0.00 0.00 61 1011.1
20260506182703 55 60 4.0 9.0 0.00 0.00 0.00 61 1011.1
20260506181803 55 58 3.0 9.0 0.00 0.00 0.00 62 1010.9
20260506180903 56 59 3.0 9.0 0.00 0.00 0.00 61 1010.7
20260506180217 56 40 2.0 5.0 0.00 0.00 0.00 61 1010.7
20260506175404 56 32 3.0 6.0 0.00 0.00 0.00 59 1010.5
20260506174503 56 37 3.0 5.0 0.00 0.00 0.00 60 1010.4
20260506173603 56 43 3.0 9.0 0.00 0.00 0.00 59 1010.3
20260506172703 56 47 4.0 10.0 0.00 0.00 0.00 58 1010.2
20260506171803 57 39 3.0 8.0 0.00 0.00 0.00 59 1010.2
20260506170903 57 41 3.0 7.0 0.00 0.00 0.00 58 1010.1
20260506170004 57 31 4.0 9.0 0.00 0.00 0.00 58 1010.0
20260506165403 57 38 5.0 9.0 0.00 0.00 0.00 58 1009.9
20260506164503 57 31 4.0 8.0 0.00 0.00 0.00 59 1009.7
20260506163817 57 33 4.0 8.0 0.00 0.00 0.00 57 1009.8
20260506162703 58 23 4.0 7.0 0.00 0.00 0.00 59 1009.7
20260506161803 58 22 4.0 9.0 0.00 0.00 0.00 59 1009.6
20260506160903 58 23 4.0 7.0 0.00 0.00 0.00 60 1009.6
20260506160003 58 27 4.0 9.0 0.00 0.00 0.00 60 1009.6
20260506155403 58 27 5.0 8.0 0.00 0.00 0.00 60 1009.6
20260506154503 58 4 5.0 9.0 0.00 0.00 0.00 60 1009.6
20260506153603 59 339 4.0 9.0 0.00 0.00 0.00 62 1009.6
20260506152703 59 322 4.0 12.0 0.00 0.00 0.00 64 1009.6
20260506152017 59 305 4.0 12.0 0.00 0.00 0.00 66 1009.6
20260506150903 59 337 4.0 10.0 0.00 0.00 0.00 67 1009.6
20260506150003 58 338 4.0 10.0 0.00 0.00 0.00 65 1009.6
20260506145403 58 339 5.0 10.0 0.00 0.00 0.00 65 1009.6
20260506144503 58 332 4.0 11.0 0.00 0.00 0.00 66 1009.6
20260506143603 58 356 4.0 9.0 0.00 0.00 0.00 63 1009.7
20260506142703 58 6 5.0 10.0 0.00 0.00 0.00 62 1009.6
20260506141803 58 9 5.0 9.0 0.00 0.00 0.00 62 1009.6
20260506140903 58 11 6.0 11.0 0.00 0.00 0.00 60 1009.6
20260506140003 59 353 6.0 12.0 0.00 0.00 0.00 61 1009.6
20260506135403 59 344 5.0 11.0 0.00 0.00 0.00 65 1009.6
20260506134503 59 334 4.0 13.0 0.00 0.00 0.00 68 1009.5
20260506133603 58 347 5.0 13.0 0.00 0.00 0.00 69 1009.6
20260506132703 58 339 5.0 10.0 0.00 0.00 0.00 70 1009.6
20260506131803 57 340 5.0 11.0 0.00 0.00 0.00 72 1009.7
20260506131118 57 331 4.0 10.0 0.00 0.00 0.00 72 1009.6
20260506130003 57 350 5.0 9.0 0.00 0.00 0.00 74 1009.6
20260506125403 57 336 4.0 9.0 0.00 0.00 0.00 73 1009.5
20260506124503 57 324 5.0 11.0 0.00 0.00 0.00 73 1009.4
20260506123603 57 328 5.0 12.0 0.00 0.00 0.00 71 1009.4
20260506122703 58 334 5.0 11.0 0.00 0.00 0.00 70 1009.3
20260506121803 58 336 4.0 10.0 0.00 0.00 0.00 70 1009.3
20260506120903 58 338 4.0 11.0 0.00 0.00 0.00 70 1009.3
20260506120003 59 334 5.0 13.0 0.00 0.00 0.00 69 1009.3
20260506115403 59 335 5.0 12.0 0.00 0.00 0.00 70 1009.3
20260506114503 59 320 4.0 10.0 0.00 0.00 0.00 70 1009.2
20260506113603 58 333 5.0 12.0 0.00 0.00 0.00 72 1009.2
20260506112703 58 317 5.0 10.0 0.00 0.00 0.00 73 1009.2
20260506111803 58 310 3.0 9.0 0.00 0.00 0.00 74 1009.2
20260506110903 57 336 5.0 10.0 0.00 0.00 0.00 73 1009.3
20260506110003 57 320 3.0 8.0 0.00 0.00 0.00 74 1009.3
20260506105403 57 328 4.0 10.0 0.00 0.00 0.00 74 1009.3
20260506104503 57 319 5.0 9.0 0.00 0.00 0.00 72 1009.3
20260506103603 57 350 5.0 11.0 0.00 0.00 0.00 73 1009.3
20260506102703 57 343 4.0 9.0 0.00 0.00 0.00 73 1009.3
20260506101803 56 336 4.0 9.0 0.00 0.00 0.00 73 1009.3
20260506101117 56 332 4.0 11.0 0.00 0.00 0.00 74 1009.3
20260506100003 56 335 5.0 9.0 0.00 0.00 0.00 74 1009.2
20260506095403 56 333 4.0 9.0 0.00 0.00 0.00 75 1009.2
20260506094503 55 338 5.0 15.0 0.00 0.00 0.00 76 1009.2
20260506093816 55 344 4.0 15.0 0.00 0.00 0.00 77 1009.2
20260506092703 55 351 5.0 11.0 0.00 0.00 0.00 78 1009.2
20260506091803 54 343 4.0 9.0 0.00 0.00 0.00 79 1009.2
20260506090903 54 345 5.0 10.0 0.00 0.00 0.00 79 1009.2
20260506090003 54 353 5.0 10.0 0.00 0.00 0.00 78 1009.1
20260506085403 54 344 4.0 10.0 0.00 0.00 0.00 79 1009.1
20260506084503 54 345 5.0 11.0 0.00 0.00 0.00 80 1009.1
20260506083603 53 354 5.0 12.0 0.00 0.00 0.00 80 1009.0
20260506082703 53 342 5.0 11.0 0.00 0.00 0.00 80 1009.0
20260506081803 53 338 5.0 10.0 0.00 0.00 0.00 82 1009.0
20260506080903 52 340 5.0 10.0 0.00 0.00 0.00 82 1008.9
20260506072917 51 338 5.0 11.0 0.00 0.00 0.00 84 1008.8
20260506071803 51 340 4.0 10.0 0.00 0.00 0.00 84 1008.9
20260506071118 50 333 4.0 10.0 0.00 0.00 0.00 85 1008.9
20260506061803 50 354 5.0 11.0 0.00 0.00 0.00 86 1008.6
20260506060903 50 353 5.0 11.0 0.00 0.00 0.00 86 1008.6
20260506050903 51 360 6.0 15.0 0.00 0.00 0.00 80 1008.5
20260506044717 51 350 5.0 11.0 0.00 0.00 0.00 76 1008.5
20260506043603 51 341 5.0 12.0 0.00 0.00 0.00 77 1008.5
20260506042703 51 345 4.0 12.0 0.00 0.00 0.00 77 1008.4
20260506041803 50 343 4.0 12.0 0.00 0.00 0.00 77 1008.4
20260506040903 50 341 5.0 13.0 0.00 0.00 0.00 78 1008.4
20260506040218 50 338 5.0 12.0 0.00 0.00 0.00 78 1008.6
20260506035403 50 338 5.0 10.0 0.00 0.00 0.00 78 1008.5
20260506034717 50 348 5.0 11.0 0.00 0.00 0.00 78 1008.5
20260506033603 50 352 5.0 10.0 0.00 0.00 0.00 78 1008.6
20260506032703 50 351 6.0 14.0 0.00 0.00 0.00 78 1008.6
20260506031803 50 343 5.0 12.0 0.00 0.00 0.00 79 1008.6
20260506030903 50 349 4.0 12.0 0.00 0.00 0.00 80 1008.6
20260506030218 50 346 4.0 9.0 0.00 0.00 0.00 80 1008.7
20260506025403 49 336 4.0 10.0 0.00 0.00 0.00 80 1008.8
20260506024503 49 342 3.0 8.0 0.00 0.00 0.00 80 1008.9
20260506023603 49 341 4.0 11.0 0.00 0.00 0.00 80 1008.9
20260506022703 49 347 4.0 13.0 0.00 0.00 0.00 79 1008.9
20260506021803 50 352 5.0 13.0 0.00 0.00 0.00 78 1009.0
20260506020903 50 353 5.0 13.0 0.00 0.00 0.00 78 1009.0
20260506020003 50 355 5.0 11.0 0.00 0.00 0.00 78 1009.1
20260506015617 49 356 5.0 11.0 0.00 0.00 0.00 78 1009.1
20260506014718 49 347 5.0 10.0 0.00 0.00 0.00 79 1009.1
20260506013818 49 344 4.0 9.0 0.00 0.00 0.00 80 1009.1
20260506012917 49 335 4.0 10.0 0.00 0.00 0.00 80 1009.1
20260506011803 49 349 4.0 9.0 0.00 0.00 0.00 79 1009.0
20260506011118 49 349 4.0 7.0 0.00 0.00 0.00 79 1009.1
20260506010003 49 337 3.0 7.0 0.00 0.00 0.00 80 1009.1
20260506005403 49 346 3.0 7.0 0.00 0.00 0.00 80 1009.1
20260506004504 49 343 4.0 9.0 0.00 0.00 0.00 80 1009.2
20260506003603 49 340 3.0 10.0 0.00 0.00 0.00 80 1009.3
20260506002703 50 345 4.0 9.0 0.00 0.00 0.00 79 1009.4
20260506002018 50 346 3.0 7.0 0.00 0.00 0.00 79 1009.5
20260506000903 50 345 3.0 8.0 0.00 0.00 0.00 79 1009.5
20260506000003 50 351 4.0 8.0 0.00 0.00 0.00 77 1009.5
20260505235403 50 352 5.0 12.0 0.00 0.00 0.00 77 1009.6
20260505234503 50 354 4.0 9.0 0.00 0.00 0.00 77 1009.7
20260505233603 50 357 4.0 11.0 0.00 0.00 0.00 77 1009.7
20260505232703 50 356 5.0 11.0 0.00 0.00 0.00 77 1009.7
20260505231803 50 2 5.0 10.0 0.00 0.00 0.00 77 1009.7
20260505230903 51 353 6.0 13.0 0.00 0.00 0.00 77 1009.7
20260505230003 51 354 6.0 11.0 0.00 0.00 0.00 77 1009.7
20260505225403 51 359 6.0 11.0 0.00 0.00 0.00 77 1009.8
20260505224503 51 2 7.0 14.0 0.00 0.00 0.00 77 1009.9
20260505223603 51 4 6.0 14.0 0.00 0.00 0.00 77 1009.9
20260505222918 51 6 6.0 12.0 0.00 0.00 0.00 77 1009.9
20260505221803 52 8 7.0 15.0 0.00 0.00 0.00 77 1009.9
20260505220903 52 4 6.0 13.0 0.00 0.00 0.00 77 1009.9
20260505220218 52 10 6.0 13.0 0.00 0.00 0.00 77 1009.9
20260505215403 52 8 6.0 12.0 0.00 0.00 0.00 77 1009.9
20260505214503 52 5 6.0 12.0 0.00 0.00 0.00 77 1009.9
20260505213603 52 8 6.0 11.0 0.00 0.00 0.00 77 1009.9
20260505212703 53 9 6.0 13.0 0.00 0.00 0.00 77 1009.9
20260505211803 53 12 6.0 12.0 0.00 0.00 0.00 77 1009.9
20260505210903 53 10 7.0 12.0 0.00 0.00 0.00 76 1010.0
20260505210003 53 12 7.0 15.0 0.00 0.00 0.00 76 1009.9
20260505205403 54 16 6.0 14.0 0.00 0.00 0.00 76 1010.0
20260505204503 54 15 7.0 14.0 0.00 0.00 0.00 76 1010.0
20260505203603 53 359 4.0 13.0 0.00 0.00 0.00 77 1009.9
20260505202703 53 358 3.0 10.0 0.00 0.00 0.00 79 1009.9
20260505201803 54 347 4.0 9.0 0.00 0.00 0.00 79 1009.8
20260505201117 54 349 4.0 11.0 0.00 0.00 0.00 79 1009.7
20260505200003 54 350 4.0 9.0 0.00 0.00 0.00 79 1009.6
20260505195616 54 353 4.0 9.0 0.00 0.00 0.00 79 1009.6